Time,TemperatureF,DewpointF,PressureIn,WindDirection,WindDirectionDegrees,WindSpeedMPH,WindSpeedGustMPH,Humidity,HourlyPrecipIn,Conditions,Clouds,dailyrainin,SoftwareType,DateUTC
2013-07-31 00:01:00,74.5,69.7,30.07,NE,45,0.0,-999.0,85,-99.99,,,0.00,Acu-Link.com,2013-07-31 04:01:00,
2013-07-31 00:16:00,74.3,69.5,30.07,NE,45,0.0,-999.0,85,-99.99,,,0.00,Acu-Link.com,2013-07-31 04:16:00,
2013-07-31 00:32:00,74.1,69.6,30.08,NE,45,0.0,-999.0,86,-99.99,,,0.00,Acu-Link.com,2013-07-31 04:32:00,
2013-07-31 00:47:00,74.1,69.6,30.07,West,270,0.0,-999.0,86,-99.99,,,0.00,Acu-Link.com,2013-07-31 04:47:00,
2013-07-31 01:02:00,74.1,69.6,30.07,WNW,292,0.0,-999.0,86,-99.99,,,0.00,Acu-Link.com,2013-07-31 05:02:00,
2013-07-31 01:17:00,73.9,69.4,30.06,WNW,292,0.0,-999.0,86,-99.99,,,0.00,Acu-Link.com,2013-07-31 05:17:00,
2013-07-31 01:32:00,73.9,69.4,30.06,WNW,292,0.0,-999.0,86,-99.99,,,0.00,Acu-Link.com,2013-07-31 05:32:00,
2013-07-31 01:47:00,73.9,69.4,30.05,WNW,292,0.0,-999.0,86,-99.99,,,0.00,Acu-Link.com,2013-07-31 05:47:00,
2013-07-31 02:02:00,73.9,69.4,30.05,WNW,292,0.0,-999.0,86,-99.99,,,0.00,Acu-Link.com,2013-07-31 06:02:00,
2013-07-31 02:17:00,73.9,69.4,30.05,WNW,292,0.0,-999.0,86,-99.99,,,0.00,Acu-Link.com,2013-07-31 06:17:00,
2013-07-31 02:32:00,73.9,69.4,30.05,WNW,292,0.0,-999.0,86,-99.99,,,0.00,Acu-Link.com,2013-07-31 06:32:00,
2013-07-31 02:47:00,73.9,69.4,30.05,WNW,292,0.0,-999.0,86,-99.99,,,0.00,Acu-Link.com,2013-07-31 06:47:00,
2013-07-31 03:03:00,73.9,69.4,30.04,WNW,292,0.0,-999.0,86,-99.99,,,0.00,Acu-Link.com,2013-07-31 07:03:00,
2013-07-31 03:18:00,73.8,69.3,30.04,WNW,292,0.0,-999.0,86,-99.99,,,0.00,Acu-Link.com,2013-07-31 07:18:00,
2013-07-31 03:33:00,73.8,69.3,30.04,WNW,292,0.0,-999.0,86,-99.99,,,0.00,Acu-Link.com,2013-07-31 07:33:00,
2013-07-31 03:48:00,73.6,69.1,30.04,WNW,292,0.0,-999.0,86,-99.99,,,0.00,Acu-Link.com,2013-07-31 07:48:00,
2013-07-31 04:03:00,73.6,69.1,30.04,West,270,0.0,-999.0,86,-99.99,,,0.00,Acu-Link.com,2013-07-31 08:03:00,
2013-07-31 04:18:00,73.4,68.9,30.04,East,90,0.0,-999.0,86,-99.99,,,0.00,Acu-Link.com,2013-07-31 08:18:00,
2013-07-31 04:33:00,73.4,68.9,30.04,West,270,0.0,-999.0,86,-99.99,,,0.00,Acu-Link.com,2013-07-31 08:33:00,
2013-07-31 04:49:00,73.2,68.8,30.04,SSW,202,0.0,-999.0,86,-99.99,,,0.00,Acu-Link.com,2013-07-31 08:49:00,
2013-07-31 05:04:00,73.0,68.6,30.04,SSE,157,0.0,-999.0,86,-99.99,,,0.00,Acu-Link.com,2013-07-31 09:04:00,
2013-07-31 05:19:00,73.0,68.9,30.03,West,270,0.0,-999.0,87,-99.99,,,0.00,Acu-Link.com,2013-07-31 09:19:00,
2013-07-31 05:34:00,72.9,68.8,30.03,West,270,0.0,-999.0,87,-99.99,,,0.00,Acu-Link.com,2013-07-31 09:34:00,
2013-07-31 05:49:00,72.7,68.6,30.03,West,270,0.0,-999.0,87,-99.99,,,0.00,Acu-Link.com,2013-07-31 09:49:00,
2013-07-31 06:04:00,72.7,68.6,30.04,West,270,0.0,-999.0,87,-99.99,,,0.00,Acu-Link.com,2013-07-31 10:04:00,
2013-07-31 06:19:00,72.5,68.4,30.04,SE,135,0.0,-999.0,87,-99.99,,,0.00,Acu-Link.com,2013-07-31 10:19:00,
2013-07-31 06:34:00,72.5,68.4,30.05,West,270,0.0,-999.0,87,-99.99,,,0.01,Acu-Link.com,2013-07-31 10:34:00,
2013-07-31 06:50:00,72.3,68.2,30.05,West,270,0.0,-999.0,87,-99.99,,,0.02,Acu-Link.com,2013-07-31 10:50:00,
2013-07-31 07:05:00,72.3,68.2,30.05,West,270,0.0,-999.0,87,-99.99,,,0.02,Acu-Link.com,2013-07-31 11:05:00,
2013-07-31 07:20:00,72.1,68.0,30.05,West,270,0.0,-999.0,87,-99.99,,,0.02,Acu-Link.com,2013-07-31 11:20:00,
2013-07-31 07:35:00,72.1,68.0,30.06,WSW,247,0.0,-999.0,87,-99.99,,,0.02,Acu-Link.com,2013-07-31 11:35:00,
2013-07-31 07:50:00,72.1,68.0,30.07,SW,225,0.0,-999.0,87,-99.99,,,0.02,Acu-Link.com,2013-07-31 11:50:00,
2013-07-31 08:05:00,72.3,68.2,30.06,ESE,112,0.0,-999.0,87,-99.99,,,0.02,Acu-Link.com,2013-07-31 12:05:00,
2013-07-31 08:20:00,72.9,68.8,30.06,ESE,112,0.0,-999.0,87,-99.99,,,0.03,Acu-Link.com,2013-07-31 12:20:00,
2013-07-31 08:35:00,73.4,69.3,30.05,WSW,247,0.0,-999.0,87,-99.99,,,0.03,Acu-Link.com,2013-07-31 12:35:00,
2013-07-31 08:50:00,73.4,69.3,30.06,South,180,0.0,-999.0,87,-99.99,,,0.03,Acu-Link.com,2013-07-31 12:50:00,
2013-07-31 09:05:00,73.8,69.7,30.06,ESE,112,0.0,-999.0,87,-99.99,,,0.03,Acu-Link.com,2013-07-31 13:05:00,
2013-07-31 09:21:00,74.3,70.2,30.06,West,270,0.0,-999.0,87,-99.99,,,0.03,Acu-Link.com,2013-07-31 13:21:00,
2013-07-31 09:36:00,74.7,70.6,30.06,SSE,157,0.0,-999.0,87,-99.99,,,0.03,Acu-Link.com,2013-07-31 13:36:00,
2013-07-31 09:51:00,74.8,70.3,30.06,East,90,0.0,-999.0,86,-99.99,,,0.03,Acu-Link.com,2013-07-31 13:51:00,
2013-07-31 10:21:00,75.9,70.7,30.06,North,0,0.0,-999.0,84,-99.99,,,0.03,Acu-Link.com,2013-07-31 14:21:00,
2013-07-31 10:36:00,76.5,71.3,30.05,East,90,0.0,-999.0,84,-99.99,,,0.03,Acu-Link.com,2013-07-31 14:36:00,
2013-07-31 11:06:00,78.8,72.1,30.05,SE,135,0.0,-999.0,80,-99.99,,,0.03,Acu-Link.com,2013-07-31 15:06:00,
2013-07-31 11:21:00,79.3,71.4,30.03,NNE,22,0.0,-999.0,77,-99.99,,,0.03,Acu-Link.com,2013-07-31 15:21:00,
2013-07-31 11:37:00,79.7,71.8,30.03,ESE,112,0.0,-999.0,77,-99.99,,,0.03,Acu-Link.com,2013-07-31 15:37:00,
2013-07-31 11:52:00,79.2,71.0,30.02,South,180,1.1,-999.0,76,-99.99,,,0.03,Acu-Link.com,2013-07-31 15:52:00,
2013-07-31 12:07:00,80.8,72.9,30.01,ESE,112,1.7,-999.0,77,-99.99,,,0.03,Acu-Link.com,2013-07-31 16:07:00,
2013-07-31 12:22:00,82.0,73.7,30.02,ESE,112,0.0,-999.0,76,-99.99,,,0.03,Acu-Link.com,2013-07-31 16:22:00,
2013-07-31 12:37:00,85.6,71.5,30.02,SW,225,0.0,-999.0,63,-99.99,,,0.03,Acu-Link.com,2013-07-31 16:37:00,
2013-07-31 12:52:00,84.2,72.0,30.00,South,180,0.0,-999.0,67,-99.99,,,0.03,Acu-Link.com,2013-07-31 16:52:00,
2013-07-31 13:07:00,84.2,72.0,30.00,SSW,202,0.0,-999.0,67,-99.99,,,0.03,Acu-Link.com,2013-07-31 17:07:00,
2013-07-31 13:22:00,84.2,72.5,30.00,ESE,112,0.0,-999.0,68,-99.99,,,0.03,Acu-Link.com,2013-07-31 17:22:00,
2013-07-31 13:38:00,82.9,72.5,29.99,ESE,112,0.0,-999.0,71,-99.99,,,0.03,Acu-Link.com,2013-07-31 17:38:00,
2013-07-31 13:53:00,83.3,72.0,29.99,SW,225,0.0,-999.0,69,-99.99,,,0.03,Acu-Link.com,2013-07-31 17:53:00,
2013-07-31 14:08:00,83.8,72.9,29.98,ENE,67,0.0,-999.0,70,-99.99,,,0.03,Acu-Link.com,2013-07-31 18:08:00,
2013-07-31 14:23:00,83.7,73.3,29.97,WSW,247,0.0,-999.0,71,-99.99,,,0.03,Acu-Link.com,2013-07-31 18:23:00,
2013-07-31 14:38:00,83.3,72.9,29.97,SSW,202,0.0,-999.0,71,-99.99,,,0.03,Acu-Link.com,2013-07-31 18:38:00,
2013-07-31 14:53:00,83.5,73.1,29.96,ESE,112,0.0,-999.0,71,-99.99,,,0.03,Acu-Link.com,2013-07-31 18:53:00,
2013-07-31 15:08:00,83.3,74.1,29.94,SE,135,0.0,-999.0,74,-99.99,,,0.03,Acu-Link.com,2013-07-31 19:08:00,
2013-07-31 15:23:00,84.4,73.1,29.94,NE,45,0.0,-999.0,69,-99.99,,,0.03,Acu-Link.com,2013-07-31 19:23:00,
2013-07-31 15:38:00,86.2,73.9,29.93,East,90,0.0,-999.0,67,-99.99,,,0.03,Acu-Link.com,2013-07-31 19:38:00,
2013-07-31 15:53:00,84.6,72.4,29.92,NNE,22,1.1,-999.0,67,-99.99,,,0.03,Acu-Link.com,2013-07-31 19:53:00,
2013-07-31 16:09:00,79.9,69.2,29.93,ESE,112,2.2,-999.0,70,-99.99,,,0.03,Acu-Link.com,2013-07-31 20:09:00,
2013-07-31 16:24:00,75.6,70.1,29.93,SSW,202,0.0,-999.0,83,-99.99,,,0.19,Acu-Link.com,2013-07-31 20:24:00,
2013-07-31 16:39:00,75.4,70.6,29.93,East,90,0.0,-999.0,85,-99.99,,,0.19,Acu-Link.com,2013-07-31 20:39:00,
2013-07-31 16:54:00,76.1,71.3,29.92,NNE,22,0.0,-999.0,85,-99.99,,,0.19,Acu-Link.com,2013-07-31 20:54:00,
2013-07-31 17:09:00,77.4,72.2,29.92,SSW,202,0.0,-999.0,84,-99.99,,,0.19,Acu-Link.com,2013-07-31 21:09:00,
2013-07-31 17:24:00,78.1,72.9,29.92,SE,135,0.0,-999.0,84,-99.99,,,0.19,Acu-Link.com,2013-07-31 21:24:00,
2013-07-31 17:39:00,77.9,72.7,29.91,ESE,112,0.0,-999.0,84,-99.99,,,0.19,Acu-Link.com,2013-07-31 21:39:00,
2013-07-31 17:54:00,77.5,71.9,29.91,ESE,112,0.0,-999.0,83,-99.99,,,0.19,Acu-Link.com,2013-07-31 21:54:00,
2013-07-31 18:09:00,78.3,72.7,29.90,ESE,112,0.0,-999.0,83,-99.99,,,0.19,Acu-Link.com,2013-07-31 22:09:00,
2013-07-31 18:25:00,78.6,73.0,29.90,ESE,112,0.0,-999.0,83,-99.99,,,0.19,Acu-Link.com,2013-07-31 22:25:00,
2013-07-31 18:40:00,78.6,72.6,29.89,NNE,22,0.0,-999.0,82,-99.99,,,0.19,Acu-Link.com,2013-07-31 22:40:00,
2013-07-31 18:55:00,79.0,72.7,29.89,SW,225,0.0,-999.0,81,-99.99,,,0.19,Acu-Link.com,2013-07-31 22:55:00,
2013-07-31 19:10:00,78.4,71.7,29.90,SSE,157,0.0,-999.0,80,-99.99,,,0.19,Acu-Link.com,2013-07-31 23:10:00,
2013-07-31 19:25:00,77.9,71.9,29.90,ESE,112,0.0,-999.0,82,-99.99,,,0.19,Acu-Link.com,2013-07-31 23:25:00,
2013-07-31 19:40:00,77.0,71.4,29.91,ESE,112,0.0,-999.0,83,-99.99,,,0.19,Acu-Link.com,2013-07-31 23:40:00,
2013-07-31 19:55:00,75.9,71.1,29.91,WSW,247,0.0,-999.0,85,-99.99,,,0.19,Acu-Link.com,2013-07-31 23:55:00,
2013-07-31 20:10:00,75.4,70.6,29.91,SW,225,0.0,-999.0,85,-99.99,,,0.19,Acu-Link.com,2013-08-01 00:10:00,
2013-07-31 20:25:00,75.0,70.2,29.91,NNE,22,0.0,-999.0,85,-99.99,,,0.19,Acu-Link.com,2013-08-01 00:25:00,
2013-07-31 20:41:00,74.5,70.0,29.92,NNE,22,0.0,-999.0,86,-99.99,,,0.19,Acu-Link.com,2013-08-01 00:41:00,
2013-07-31 21:11:00,73.9,69.4,29.91,NNE,22,0.0,-999.0,86,-99.99,,,0.19,Acu-Link.com,2013-08-01 01:11:00,
2013-07-31 21:26:00,73.8,69.7,29.92,SE,135,0.0,-999.0,87,-99.99,,,0.19,Acu-Link.com,2013-08-01 01:26:00,
2013-07-31 21:41:00,73.6,69.5,29.92,SE,135,0.0,-999.0,87,-99.99,,,0.19,Acu-Link.com,2013-08-01 01:41:00,
2013-07-31 21:56:00,73.4,69.3,29.91,SE,135,0.0,-999.0,87,-99.99,,,0.19,Acu-Link.com,2013-08-01 01:56:00,
2013-07-31 22:11:00,73.2,69.1,29.92,ENE,67,0.0,-999.0,87,-99.99,,,0.19,Acu-Link.com,2013-08-01 02:11:00,
2013-07-31 22:42:00,72.5,68.4,29.91,NNW,337,0.0,-999.0,87,-99.99,,,0.19,Acu-Link.com,2013-08-01 02:42:00,
2013-07-31 22:57:00,72.3,68.2,29.91,ESE,112,0.0,-999.0,87,-99.99,,,0.19,Acu-Link.com,2013-08-01 02:57:00,
2013-07-31 23:12:00,72.3,68.2,29.92,SW,225,0.0,-999.0,87,-99.99,,,0.19,Acu-Link.com,2013-08-01 03:12:00,
2013-07-31 23:27:00,72.3,68.2,29.91,West,270,0.0,-999.0,87,-99.99,,,0.19,Acu-Link.com,2013-08-01 03:27:00,
2013-07-31 23:42:00,72.3,68.2,29.91,South,180,0.0,-999.0,87,-99.99,,,0.19,Acu-Link.com,2013-08-01 03:42:00,
2013-07-31 23:57:00,72.3,68.2,29.91,NE,45,1.1,-999.0,87,-99.99,,,0.19,Acu-Link.com,2013-08-01 03:57:00,